This is the latest recevied weather packets stored in our database for station/object OE-11307. If no packets are shown the sender has not sent any weather packets the latest 10 day(s).
| Time | Temp. | Humidity | Pressure | Rain* | Wind** | Luminosity | Snow |
|---|---|---|---|---|---|---|---|
| 1787987114 | 10.56° C | 93% | 853.1 hPa | 0 mm | - | 328 W/m² | - |
| 1787986514 | 10° C | 95% | 853.1 hPa | 0 mm | - | 309 W/m² | - |
| 1787985687 | 10° C | 96% | 853 hPa | 0 mm | - | 195 W/m² | - |
| 1787985313 | 9.44° C | 96% | 853 hPa | 0 mm | - | 32 W/m² | - |
| 1787984714 | 9.44° C | 97% | 853 hPa | 0 mm | - | 32 W/m² | - |
| 1787983887 | 9.44° C | 97% | 852.9 hPa | 0 mm | - | 32 W/m² | - |
| 1787982914 | 8.89° C | 95% | 853 hPa | 0 mm | - | 25 W/m² | - |
| 1787982086 | 8.89° C | 94% | 853.2 hPa | 0 mm | - | 19 W/m² | - |
| 1787981714 | 8.89° C | 94% | 853 hPa | 0 mm | - | 19 W/m² | - |
| 1787981113 | 8.89° C | 95% | 853 hPa | 0 mm | - | 13 W/m² | - |
| 1787980286 | 8.89° C | 95% | 852.9 hPa | 0 mm | - | 13 W/m² | - |
| 1787979913 | 8.89° C | 94% | 852.7 hPa | 0 mm | - | 6 W/m² | - |
| 1787979314 | 9.44° C | 92% | 852.8 hPa | 0 mm | - | 0 W/m² | - |
| 1787978487 | 9.44° C | 94% | 852.7 hPa | 0 mm | - | 0 W/m² | - |
| 1787978113 | 9.44° C | 94% | 852.7 hPa | 0 mm | - | 0 W/m² | - |
| 1787977514 | 9.44° C | 94% | 852.6 hPa | 0 mm | - | 0 W/m² | - |
| 1787976687 | 9.44° C | 94% | 852.6 hPa | 0 mm | - | 0 W/m² | - |
| 1787976314 | 9.44° C | 95% | 852.7 hPa | 0 mm | - | 0 W/m² | - |
| 1787975714 | 9.44° C | 95% | 852.6 hPa | 0 mm | - | 0 W/m² | - |
| 1787975114 | 9.44° C | 96% | 852.6 hPa | 0 mm | - | 0 W/m² | - |
| 1787974513 | 9.44° C | 96% | 852.6 hPa | 0 mm | - | 0 W/m² | - |
| 1787973914 | 10° C | 96% | 852.6 hPa | 0 mm | - | 0 W/m² | - |
| 1787973086 | 10° C | 96% | 852.7 hPa | 0 mm | - | 0 W/m² | - |
| 1787972714 | 10° C | 96% | 852.7 hPa | 0 mm | - | 0 W/m² | - |
| 1787972114 | 10° C | 96% | 852.9 hPa | 0 mm | - | 0 W/m² | - |
* Rain latest hour (hover to see other rain measurements)
** Current wind speed in m/s (hover to see current wind gust speed)